Location: Peebles
(55.6412°N, 3.1714°W)
Time: 10:06:26
(UTC+01:00)

Cosmos 1626 - Pass Details

Date: 26 September 2021
Orbit: 489 x 491 km, 82.5° (Epoch: 20 October)

Event Time Altitude Azimuth Distance (km) Brightness Sun altitude
Rises 20:21:38 0° 346° (NNW) 2,587 6.2 -12.1°
Reaches altitude 10° 20:23:46 10° 345° (NNW) 1,700 5.2 -12.4°
Maximum altitude 20:27:28 72° 260° (W) 524 2.3 -12.9°
Drops below altitude 10° 20:31:08 10° 177° (S) 1,685 4.6 -13.4°
Sets 20:33:14 0° 175° (S) 2,562 5.5 -13.7°
